TimeCDT,TemperatureF,Dew PointF,Humidity,Sea Level PressureIn,VisibilityMPH,Wind Direction,Wind SpeedMPH,Gust SpeedMPH,PrecipitationIn,Events,Conditions,WindDirDegrees,DateUTC
12:13 AM,46.4,30.2,53,30.06,10.0,ENE,8.1,16.1,N/A,,Scattered Clouds,60,2013-05-18 05:13:00
12:33 AM,46.4,30.2,53,30.07,10.0,ENE,6.9,-,N/A,,Scattered Clouds,60,2013-05-18 05:33:00
12:53 AM,46.4,30.2,53,30.07,10.0,ENE,9.2,16.1,N/A,,Mostly Cloudy,70,2013-05-18 05:53:00
1:13 AM,44.6,30.2,57,30.05,10.0,NE,8.1,-,N/A,,Scattered Clouds,50,2013-05-18 06:13:00
1:33 AM,44.6,30.2,57,30.05,10.0,NE,6.9,-,N/A,,Scattered Clouds,50,2013-05-18 06:33:00
1:53 AM,44.6,30.2,57,30.04,10.0,ENE,6.9,-,N/A,,Scattered Clouds,60,2013-05-18 06:53:00
2:13 AM,44.6,32.0,61,30.03,10.0,ENE,5.8,-,N/A,,Overcast,70,2013-05-18 07:13:00
2:33 AM,44.6,32.0,61,30.03,10.0,NE,4.6,-,N/A,,Overcast,50,2013-05-18 07:33:00
2:53 AM,44.6,32.0,61,30.02,10.0,Calm,Calm,-,N/A,,Scattered Clouds,0,2013-05-18 07:53:00
3:13 AM,44.6,32.0,61,30.02,10.0,Calm,Calm,-,N/A,,Scattered Clouds,0,2013-05-18 08:13:00
3:33 AM,44.6,32.0,61,30.02,10.0,ENE,3.5,-,N/A,,Mostly Cloudy,70,2013-05-18 08:33:00
3:53 AM,44.6,33.8,66,30.02,10.0,Calm,Calm,-,N/A,,Scattered Clouds,0,2013-05-18 08:53:00
4:13 AM,44.6,33.8,66,30.02,10.0,Calm,Calm,-,N/A,,Clear,0,2013-05-18 09:13:00
4:33 AM,44.6,33.8,66,30.01,10.0,Calm,Calm,-,N/A,,Mostly Cloudy,0,2013-05-18 09:33:00
4:53 AM,44.6,33.8,66,30.02,7.0,Calm,Calm,-,N/A,Rain,Rain,0,2013-05-18 09:53:00
5:13 AM,42.8,35.6,76,30.01,10.0,Calm,Calm,-,0.03,Rain,Light Rain,0,2013-05-18 10:13:00
5:33 AM,41.0,35.6,81,30.02,10.0,Calm,Calm,-,0.04,Rain,Light Rain,0,2013-05-18 10:33:00
5:53 AM,41.0,37.4,87,30.02,4.0,Calm,Calm,-,0.01,Rain,Heavy Rain,0,2013-05-18 10:53:00
6:13 AM,41.0,37.4,87,30.02,10.0,Calm,Calm,-,0.04,,Scattered Clouds,0,2013-05-18 11:13:00
6:33 AM,42.8,37.4,81,30.02,10.0,Calm,Calm,-,0.06,,Drizzle,0,2013-05-18 11:33:00
6:53 AM,42.8,37.4,81,30.02,10.0,Calm,Calm,-,N/A,,Light Drizzle,0,2013-05-18 11:53:00
7:13 AM,42.8,39.2,87,30.03,10.0,Calm,Calm,-,0.01,,Mostly Cloudy,0,2013-05-18 12:13:00
7:33 AM,42.8,39.2,87,30.03,10.0,Calm,Calm,-,0.01,,Overcast,0,2013-05-18 12:33:00
7:53 AM,42.8,39.2,87,30.03,10.0,Calm,Calm,-,N/A,,Mostly Cloudy,0,2013-05-18 12:53:00
8:13 AM,42.8,39.2,87,30.02,5.0,Calm,Calm,-,N/A,Rain,Rain,0,2013-05-18 13:13:00
8:33 AM,42.8,39.2,87,30.02,4.0,Calm,Calm,-,0.02,Rain,Rain,0,2013-05-18 13:33:00
8:53 AM,44.6,39.2,81,30.01,7.0,Calm,Calm,-,N/A,Rain,Light Rain,0,2013-05-18 13:53:00
9:13 AM,44.6,39.2,81,30.00,10.0,Calm,Calm,-,0.02,,Drizzle,0,2013-05-18 14:13:00
9:33 AM,44.6,39.2,81,29.99,10.0,Calm,Calm,-,0.04,,Light Drizzle,0,2013-05-18 14:33:00
9:53 AM,44.6,39.2,81,30.00,10.0,Calm,Calm,-,0.01,,Light Drizzle,0,2013-05-18 14:53:00
10:13 AM,44.6,41.0,87,30.01,10.0,Calm,Calm,-,0.02,,Overcast,0,2013-05-18 15:13:00
10:33 AM,44.6,42.8,93,30.00,4.0,Calm,Calm,-,0.04,,Overcast,0,2013-05-18 15:33:00
10:53 AM,46.4,42.8,87,29.99,1.5,Calm,Calm,-,N/A,,Overcast,0,2013-05-18 15:53:00
11:13 AM,46.4,42.8,87,29.99,1.0,Calm,Calm,-,N/A,,Overcast,0,2013-05-18 16:13:00
11:33 AM,46.4,42.8,87,29.99,0.8,Calm,Calm,-,N/A,,Overcast,0,2013-05-18 16:33:00
11:53 AM,46.4,42.8,87,29.99,0.2,Calm,Calm,-,N/A,Fog,Fog,0,2013-05-18 16:53:00
12:13 PM,46.4,44.6,93,29.98,0.2,Calm,Calm,-,N/A,Fog,Fog,0,2013-05-18 17:13:00
12:33 PM,46.4,44.6,93,29.97,0.2,Calm,Calm,-,N/A,Fog,Fog,0,2013-05-18 17:33:00
12:54 PM,48.2,44.6,87,29.97,0.2,Calm,Calm,-,N/A,Rain,Light Rain,0,2013-05-18 17:54:00
1:13 PM,48.2,44.6,87,29.96,0.2,ENE,4.6,-,N/A,Fog,Fog,60,2013-05-18 18:13:00
1:33 PM,48.2,44.6,87,29.95,0.2,East,6.9,-,N/A,Fog,Fog,80,2013-05-18 18:33:00
2:13 PM,46.4,44.6,93,29.95,0.5,East,6.9,-,N/A,,Drizzle,80,2013-05-18 19:13:00
2:33 PM,46.4,44.6,93,29.94,1.0,ENE,5.8,-,0.01,,Drizzle,70,2013-05-18 19:33:00
2:53 PM,48.2,44.6,87,29.93,3.0,ENE,3.5,-,N/A,,Light Drizzle,60,2013-05-18 19:53:00
3:13 PM,48.2,44.6,87,29.94,3.0,East,3.5,-,N/A,,Overcast,80,2013-05-18 20:13:00
3:33 PM,48.2,44.6,87,29.94,1.5,East,4.6,-,N/A,,Overcast,80,2013-05-18 20:33:00
3:53 PM,46.4,44.6,93,29.95,0.8,Calm,Calm,-,N/A,,Overcast,0,2013-05-18 20:53:00
4:13 PM,48.2,44.6,87,29.94,0.5,ENE,3.5,-,N/A,Fog,Fog,60,2013-05-18 21:13:00
4:33 PM,48.2,44.6,87,29.94,0.2,ENE,6.9,-,N/A,Fog,Fog,70,2013-05-18 21:33:00
5:13 PM,48.2,44.6,87,29.93,0.5,East,4.6,-,N/A,Fog,Fog,80,2013-05-18 22:13:00
5:33 PM,48.2,44.6,87,29.93,0.5,Calm,Calm,-,N/A,Fog,Fog,0,2013-05-18 22:33:00
5:53 PM,48.2,46.4,93,29.93,2.5,Calm,Calm,-,N/A,,Overcast,0,2013-05-18 22:53:00
6:13 PM,48.2,46.4,93,29.93,1.2,Calm,Calm,-,N/A,,Overcast,0,2013-05-18 23:13:00
6:34 PM,48.2,46.4,93,29.92,1.0,NE,4.6,-,N/A,,Overcast,50,2013-05-18 23:34:00
6:53 PM,48.2,46.4,93,29.92,1.5,Calm,Calm,-,N/A,,Overcast,0,2013-05-18 23:53:00
7:13 PM,48.2,46.4,93,29.92,1.0,Calm,Calm,-,N/A,,Overcast,0,2013-05-19 00:13:00
7:33 PM,48.2,46.4,93,29.92,1.0,Calm,Calm,-,N/A,,Overcast,0,2013-05-19 00:33:00
7:53 PM,48.2,46.4,93,29.92,1.0,Calm,Calm,-,N/A,,Overcast,0,2013-05-19 00:53:00
8:13 PM,48.2,46.4,93,29.91,1.2,Calm,Calm,-,N/A,,Overcast,0,2013-05-19 01:13:00
8:33 PM,48.2,46.4,93,29.91,2.5,Calm,Calm,-,N/A,,Overcast,0,2013-05-19 01:33:00
9:13 PM,48.2,44.6,87,29.91,1.5,Calm,Calm,-,N/A,,Overcast,0,2013-05-19 02:13:00
9:33 PM,46.4,42.8,87,29.91,0.5,Calm,Calm,-,N/A,Fog,Fog,0,2013-05-19 02:33:00
9:53 PM,44.6,41.0,87,29.91,0.5,Calm,Calm,-,N/A,Fog,Fog,0,2013-05-19 02:53:00
10:13 PM,44.6,41.0,87,29.90,0.5,Calm,Calm,-,N/A,Fog,Fog,0,2013-05-19 03:13:00
10:33 PM,44.6,42.8,93,29.90,0.5,Calm,Calm,-,N/A,Fog,Fog,0,2013-05-19 03:33:00
10:53 PM,44.6,42.8,93,29.89,0.5,Calm,Calm,-,N/A,Fog,Fog,0,2013-05-19 03:53:00
11:13 PM,44.6,42.8,93,29.88,0.5,NNE,4.6,-,N/A,Fog,Fog,30,2013-05-19 04:13:00
11:33 PM,46.4,42.8,87,29.88,0.8,Calm,Calm,-,N/A,Rain,Rain,0,2013-05-19 04:33:00
11:53 PM,46.4,44.6,93,29.87,2.5,ENE,5.8,-,N/A,Rain,Light Rain,60,2013-05-19 04:53:00